EW2271 Weather Reports


Display with metric or nautical units.
time (UTC)temp
F
wind
direction
speed
MPH
gust
MPH
rain 1hr
in
rain 24hr
in
rain mn
in
humidity
%
barometer
mb
20190425100335 43 315 0.0 0.0 0.00 0.00 0.00 81 1012.5
20190425095827 43 316 0.0 0.0 0.00 0.00 0.00 81 1012.5
20190425095313 43 315 0.0 1.0 0.00 0.00 0.00 82 1012.3
20190425094906 43 315 0.0 2.0 0.00 0.00 0.00 82 1012.3
20190425094359 43 315 1.0 2.0 0.00 0.00 0.00 82 1012.3
20190425093845 43 315 1.0 2.0 0.00 0.00 0.00 82 1012.2
20190425093322 43 315 0.0 2.0 0.00 0.00 0.00 82 1012.1
20190425092903 43 315 1.0 2.0 0.00 0.00 0.00 82 1012.1
20190425092334 43 315 0.0 1.0 0.00 0.00 0.00 82 1012.0
20190425091907 43 315 0.0 1.0 0.00 0.00 0.00 82 1012.0
20190425091353 43 316 0.0 2.0 0.00 0.00 0.00 82 1011.9
20190425090846 43 315 0.0 2.0 0.00 0.00 0.00 82 1011.9
20190425090338 43 315 0.0 2.0 0.00 0.00 0.00 82 1011.8
20190425085904 43 315 1.0 2.0 0.00 0.00 0.00 82 1011.9
20190425085349 43 315 1.0 1.0 0.00 0.00 0.00 82 1011.9
20190425084842 43 315 0.0 2.0 0.00 0.00 0.00 82 1011.9
20190425084312 43 315 1.0 2.0 0.00 0.00 0.00 81 1011.9
20190425083845 43 315 0.0 0.0 0.00 0.00 0.00 81 1011.9
20190425083331 43 315 0.0 0.0 0.00 0.00 0.00 81 1011.9
20190425082905 43 315 0.0 1.0 0.00 0.00 0.00 81 1011.8
20190425082351 43 315 0.0 1.0 0.00 0.00 0.00 81 1011.9
20190425081844 43 315 0.0 0.0 0.00 0.00 0.00 81 1012.0
20190425081331 43 315 0.0 0.0 0.00 0.00 0.00 81 1011.9
20190425080904 43 315 0.0 0.0 0.00 0.00 0.00 81 1012.0
20190425080350 43 315 0.0 0.0 0.00 0.00 0.00 81 1012.0
20190425075817 43 315 0.0 1.0 0.00 0.00 0.00 81 1012.0
20190425075351 43 315 0.0 1.0 0.00 0.00 0.00 81 1012.1
20190425074836 43 315 0.0 0.0 0.00 0.00 0.00 81 1012.2
20190425074329 43 315 0.0 0.0 0.00 0.00 0.00 81 1012.3
20190425073819 43 315 0.0 1.0 0.00 0.00 0.00 81 1012.2
20190425073406 43 315 0.0 1.0 0.00 0.00 0.00 81 1012.2
20190425072859 43 315 0.0 1.0 0.00 0.00 0.00 81 1012.2
20190425072345 43 315 0.0 0.0 0.00 0.00 0.00 80 1012.3
20190425071822 43 315 0.0 0.0 0.00 0.00 0.00 80 1012.4
20190425071350 43 315 0.0 0.0 0.00 0.00 0.00 79 1012.4
20190425070842 43 315 0.0 1.0 0.00 0.00 0.00 79 1012.4
20190425070328 43 315 0.0 1.0 0.00 0.00 0.00 79 1012.3
20190425065816 43 315 0.0 0.0 0.00 0.00 0.00 78 1012.4
20190425065404 43 315 0.0 0.0 0.00 0.00 0.00 78 1012.5
20190425064855 43 315 0.0 1.0 0.00 0.00 0.00 78 1012.5
20190425064348 43 315 0.0 1.0 0.00 0.00 0.00 78 1012.6
20190425063816 43 315 0.0 1.0 0.00 0.00 0.00 78 1012.7
20190425063358 43 315 0.0 2.0 0.00 0.00 0.00 78 1012.8
20190425062835 43 315 1.0 2.0 0.00 0.00 0.00 78 1012.8
20190425062402 43 315 2.0 2.0 0.00 0.00 0.00 79 1012.8
20190425061855 43 315 1.0 3.0 0.00 0.00 0.00 79 1013.0
20190425061341 43 315 2.0 3.0 0.00 0.00 0.00 79 1012.9
20190425060834 43 315 1.0 3.0 0.00 0.00 0.00 78 1012.8
20190425060319 43 315 1.0 4.0 0.00 0.00 0.00 78 1012.8
20190425055814 43 333 1.0 2.0 0.00 0.00 0.00 78 1012.7
20190425055322 44 333 1.0 2.0 0.00 0.00 0.00 78 1012.7
20190425054825 44 333 1.0 1.0 0.00 0.00 0.00 78 1012.7
20190425054332 44 333 0.0 1.0 0.00 0.00 0.00 78 1012.7
20190425053814 44 333 0.0 2.0 0.00 0.00 0.00 77 1012.6
20190425053316 44 333 1.0 2.0 0.00 0.00 0.00 77 1012.5
20190425052819 44 333 0.0 1.0 0.00 0.00 0.00 76 1012.6
20190425052327 44 333 0.0 0.0 0.00 0.00 0.00 76 1012.7
20190425051813 44 333 0.0 1.0 0.00 0.00 0.00 76 1012.6
20190425051316 44 333 0.0 1.0 0.00 0.00 0.00 76 1012.5
20190425050824 44 333 0.0 1.0 0.00 0.00 0.00 76 1012.5
20190425050324 44 333 0.0 2.0 0.00 0.00 0.00 76 1012.4
20190425045825 44 333 1.0 2.0 0.00 0.00 0.00 76 1012.3
20190425045334 45 333 1.0 3.0 0.00 0.00 0.00 75 1012.3
20190425044817 45 333 1.0 4.0 0.00 0.00 0.00 75 1012.2
20190425044319 45 333 1.0 4.0 0.00 0.00 0.00 75 1012.1
20190425043826 45 333 3.0 4.0 0.00 0.00 0.00 74 1012.1
20190425043327 45 346 2.0 4.0 0.00 0.00 0.00 74 1012.1
20190425042829 45 330 2.0 4.0 0.00 0.00 0.00 74 1012.1
20190425042312 45 309 2.0 6.0 0.00 0.00 0.00 74 1012.0
20190425041819 46 339 2.0 8.0 0.00 0.00 0.00 73 1011.8
20190425041321 46 308 3.0 7.0 0.00 0.00 0.00 73 1011.7
20190425040823 46 314 3.0 8.0 0.00 0.00 0.00 72 1011.4
20190425040330 46 301 4.0 8.0 0.00 0.00 0.00 72 1011.6
20190425035906 46 324 3.0 7.0 0.00 0.00 0.00 72 1011.6
20190425035353 47 332 4.0 7.0 0.00 0.00 0.00 72 1011.6
20190425034845 47 317 4.0 8.0 0.00 0.00 0.00 71 1011.6
20190425034331 47 336 5.0 8.0 0.00 0.00 0.00 71 1011.4
20190425034019 47 326 3.0 6.0 0.00 0.00 0.00 70 1011.4
20190425033358 48 331 4.0 6.0 0.00 0.00 0.00 70 1011.5
20190425032844 48 329 3.0 6.0 0.00 0.00 0.00 69 1011.6
20190425032320 48 321 3.0 6.0 0.00 0.00 0.00 69 1011.6
20190425031846 49 321 3.0 4.0 0.00 0.00 0.00 69 1011.6
20190425031332 49 323 3.0 4.0 0.00 0.00 0.00 68 1011.6
20190425030357 49 308 1.0 4.0 0.00 0.00 0.00 68 1011.6
20190425025850 50 341 2.0 5.0 0.00 0.00 0.00 67 1011.6
20190425025336 50 348 1.0 3.0 0.00 0.00 0.00 67 1011.4
20190425024829 50 348 2.0 3.0 0.00 0.00 0.00 67 1011.4
20190425024357 50 348 1.0 1.0 0.00 0.00 0.00 66 1011.4
20190425023833 51 348 1.0 2.0 0.00 0.00 0.00 65 1011.3
20190425023359 51 348 0.0 3.0 0.00 0.00 0.00 65 1011.3
20190425022852 51 348 1.0 3.0 0.00 0.00 0.00 64 1011.2
20190425022335 51 348 1.0 3.0 0.00 0.00 0.00 64 1011.0
20190425021900 51 348 1.0 4.0 0.00 0.00 0.00 64 1011.0
20190425021353 51 344 2.0 6.0 0.00 0.00 0.00 63 1011.0
20190425020845 52 316 3.0 6.0 0.00 0.00 0.00 63 1011.0
20190425020330 52 360 2.0 5.0 0.00 0.00 0.00 62 1011.0
20190425015340 53 2 3.0 7.0 0.00 0.00 0.00 61 1010.7
20190425014826 53 299 2.0 4.0 0.00 0.00 0.00 62 1010.6
20190425014319 53 337 2.0 4.0 0.00 0.00 0.00 60 1010.6
20190425013912 54 358 3.0 5.0 0.00 0.00 0.00 60 1010.5
20190425013357 54 16 1.0 4.0 0.00 0.00 0.00 61 1010.5
20190425012850 54 302 2.0 3.0 0.00 0.00 0.00 60 1010.5
20190425012337 55 302 2.0 3.0 0.00 0.00 0.00 59 1010.5
20190425011813 55 340 2.0 4.0 0.00 0.00 0.00 58 1010.4
20190425011356 55 340 1.0 6.0 0.00 0.00 0.00 57 1010.3
20190425010830 55 8 1.0 2.0 0.00 0.00 0.00 57 1010.2
20190425010357 55 8 1.0 4.0 0.00 0.00 0.00 55 1010.2
20190425005842 56 8 1.0 4.0 0.00 0.00 0.00 55 1010.1
20190425005335 56 312 0.0 3.0 0.00 0.00 0.00 55 1010.0
20190425004828 56 312 1.0 4.0 0.00 0.00 0.00 56 1010.0
20190425004314 56 314 1.0 3.0 0.00 0.00 0.00 55 1009.9
20190425003907 56 313 1.0 2.0 0.00 0.00 0.00 55 1009.8
20190425003352 56 313 0.0 2.0 0.00 0.00 0.00 54 1009.8
20190425002828 57 313 1.0 3.0 0.00 0.00 0.00 54 1009.7
20190425002356 57 313 2.0 3.0 0.00 0.00 0.00 54 1009.7
20190425001846 57 313 1.0 3.0 0.00 0.00 0.00 53 1009.6
20190425001332 57 313 1.0 3.0 0.00 0.00 0.00 53 1009.6
20190425000825 58 313 2.0 3.0 0.00 0.00 0.00 52 1009.5
20190425000406 58 315 2.0 3.0 0.00 0.00 0.00 52 1009.5
20190424235859 58 311 2.0 4.0 0.00 0.00 0.00 52 1009.4
20190424235352 58 310 2.0 4.0 0.00 0.00 0.00 51 1009.3
20190424234837 58 316 2.0 4.0 0.00 0.00 0.00 51 1009.2
20190424234316 59 325 2.0 3.0 0.00 0.00 0.00 50 1009.1
20190424233841 59 325 0.0 3.0 0.00 0.00 0.00 51 1009.2
20190424233327 59 325 1.0 5.0 0.00 0.00 0.00 50 1009.1
20190424232819 59 325 3.0 5.0 0.00 0.00 0.00 49 1009.0
20190424232312 59 360 2.0 5.0 0.00 0.00 0.00 49 1009.0
20190424231858 59 327 3.0 5.0 0.00 0.00 0.00 48 1009.0
20190424231352 59 343 1.0 7.0 0.00 0.00 0.00 48 1009.0
20190424230838 59 353 2.0 8.0 0.00 0.00 0.00 47 1008.9
20190424230314 60 330 4.0 8.0 0.00 0.00 0.00 47 1008.8
20190424225841 60 329 3.0 9.0 0.00 0.00 0.00 47 1008.7
20190424225334 60 286 4.0 9.0 0.00 0.00 0.00 47 1008.7
20190424224820 60 336 3.0 10.0 0.00 0.00 0.00 47 1008.6
20190424224313 60 297 3.0 11.0 0.00 0.00 0.00 47 1008.7
20190424223906 60 346 4.0 11.0 0.00 0.00 0.00 46 1008.7
20190424223352 60 286 2.0 9.0 0.00 0.00 0.00 47 1008.6
20190424222844 60 335 4.0 9.0 0.00 0.00 0.00 46 1008.5
20190424222330 61 283 2.0 6.0 0.00 0.00 0.00 46 1008.4
20190424221901 61 210 3.0 7.0 0.00 0.00 0.00 47 1008.3
20190424221331 61 314 2.0 13.0 0.00 0.00 0.00 46 1008.3
20190424220858 61 312 4.0 9.0 0.00 0.00 0.00 46 1008.3
20190424220351 61 262 2.0 9.0 0.00 0.00 0.00 46 1008.3
20190424215836 61 341 5.0 12.0 0.00 0.00 0.00 45 1008.2
20190424215329 61 294 5.0 12.0 0.00 0.00 0.00 46 1008.1
20190424214821 61 329 3.0 9.0 0.00 0.00 0.00 45 1008.0
20190424214407 62 343 5.0 9.0 0.00 0.00 0.00 44 1008.0
20190424213859 62 314 5.0 9.0 0.00 0.00 0.00 44 1007.9
20190424213328 62 339 3.0 12.0 0.00 0.00 0.00 45 1007.8
20190424212902 63 191 6.0 12.0 0.00 0.00 0.00 44 1007.7
20190424212347 63 307 4.0 11.0 0.00 0.00 0.00 44 1007.7
20190424211840 63 287 4.0 9.0 0.00 0.00 0.00 44 1007.7
20190424211405 63 235 2.0 9.0 0.00 0.00 0.00 45 1007.6
20190424210858 63 151 5.0 13.0 0.00 0.00 0.00 44 1007.6
20190424210344 63 345 6.0 13.0 0.00 0.00 0.00 44 1007.5
20190424205837 63 297 5.0 10.0 0.00 0.00 0.00 44 1007.4
20190424205403 64 274 4.0 9.0 0.00 0.00 0.00 45 1007.3
20190424204833 64 316 4.0 11.0 0.00 0.00 0.00 44 1007.3
20190424204406 64 212 4.0 11.0 0.00 0.00 0.00 44 1007.1
20190424203853 64 308 3.0 10.0 0.00 0.00 0.00 44 1007.1
20190424203345 64 332 5.0 9.0 0.00 0.00 0.00 44 1007.0
20190424202831 64 322 2.0 9.0 0.00 0.00 0.00 44 1007.0
20190424202324 64 346 7.0 10.0 0.00 0.00 0.00 43 1007.0
20190424201816 64 349 2.0 10.0 0.00 0.00 0.00 45 1007.0
20190424201403 64 209 3.0 10.0 0.00 0.00 0.00 46 1007.0
20190424200856 64 267 5.0 10.0 0.00 0.00 0.00 44 1007.1
20190424200324 64 213 5.0 10.0 0.00 0.00 0.00 42 1007.0
20190424195851 64 291 3.0 10.0 0.00 0.00 0.00 46 1007.0
20190424195343 64 317 5.0 10.0 0.00 0.00 0.00 45 1007.1
20190424194836 64 318 4.0 10.0 0.00 0.00 0.00 44 1007.2
20190424194322 64 301 4.0 8.0 0.00 0.00 0.00 46 1007.0
20190424193814 64 304 3.0 9.0 0.00 0.00 0.00 47 1007.0
20190424193402 63 250 3.0 9.0 0.00 0.00 0.00 45 1007.0
20190424192854 63 351 4.0 9.0 0.00 0.00 0.00 46 1007.0
20190424192324 63 310 4.0 10.0 0.00 0.00 0.00 46 1006.9
20190424191857 63 248 6.0 10.0 0.00 0.00 0.00 44 1007.0
20190424191342 63 332 6.0 10.0 0.00 0.00 0.00 47 1007.0
20190424190835 63 314 4.0 9.0 0.00 0.00 0.00 46 1007.1
20190424190321 63 231 4.0 10.0 0.00 0.00 0.00 46 1007.1
20190424185813 63 277 4.0 10.0 0.00 0.00 0.00 47 1007.0
20190424185407 62 285 4.0 11.0 0.00 0.00 0.00 45 1007.2
20190424184854 62 351 6.0 12.0 0.00 0.00 0.00 47 1007.1
20190424184346 62 325 7.0 12.0 0.00 0.00 0.00 46 1007.1
20190424183817 62 285 5.0 10.0 0.00 0.00 0.00 46 1007.3
20190424183342 62 175 3.0 10.0 0.00 0.00 0.00 45 1007.3
20190424182835 62 301 4.0 10.0 0.00 0.00 0.00 47 1007.4
20190424182402 61 219 4.0 11.0 0.00 0.00 0.00 47 1007.3
20190424181855 61 318 4.0 11.0 0.00 0.00 0.00 46 1007.4
20190424181402 62 308 7.0 10.0 0.00 0.00 0.00 46 1007.4
20190424180853 61 354 5.0 11.0 0.00 0.00 0.00 48 1007.3
20190424180335 61 305 6.0 11.0 0.00 0.00 0.00 48 1007.3
20190424175902 61 329 4.0 13.0 0.00 0.00 0.00 48 1007.3
20190424175339 61 322 7.0 13.0 0.00 0.00 0.00 48 1007.3
20190424174906 61 346 7.0 10.0 0.00 0.00 0.00 49 1007.3
20190424174359 61 352 5.0 10.0 0.00 0.00 0.00 50 1007.2
20190424173845 61 325 6.0 12.0 0.00 0.00 0.00 50 1007.5
20190424173337 60 287 5.0 12.0 0.00 0.00 0.00 48 1007.4
20190424172823 61 326 5.0 12.0 0.00 0.00 0.00 48 1007.2
20190424172316 60 354 5.0 11.0 0.00 0.00 0.00 50 1007.2
20190424171909 60 277 4.0 11.0 0.00 0.00 0.00 51 1007.3
20190424171354 60 206 5.0 12.0 0.00 0.00 0.00 51 1007.4
20190424170824 60 298 4.0 12.0 0.00 0.00 0.00 50 1007.3
20190424170357 60 323 6.0 13.0 0.00 0.00 0.00 49 1007.4
20190424165844 60 297 3.0 13.0 0.00 0.00 0.00 49 1007.3
20190424165336 61 339 7.0 13.0 0.00 0.00 0.00 49 1007.4
20190424164829 61 320 5.0 11.0 0.00 0.00 0.00 50 1007.4
20190424164315 60 286 5.0 14.0 0.00 0.00 0.00 50 1007.3
20190424163850 60 301 6.0 15.0 0.00 0.00 0.00 48 1007.1
20190424163334 61 177 5.0 15.0 0.00 0.00 0.00 51 1007.1
20190424162902 61 287 4.0 14.0 0.00 0.00 0.00 48 1007.0
20190424162338 61 294 4.0 12.0 0.00 0.00 0.00 49 1006.9
20190424161824 61 280 4.0 12.0 0.00 0.00 0.00 49 1006.7
20190424161317 61 266 3.0 15.0 0.00 0.00 0.00 50 1006.6
20190424160910 61 330 8.0 15.0 0.00 0.00 0.00 48 1006.7
20190424160356 61 196 4.0 14.0 0.00 0.00 0.00 49 1006.7
20190424155849 61 329 6.0 14.0 0.00 0.00 0.00 48 1006.8
20190424155335 61 157 8.0 13.0 0.00 0.00 0.00 48 1006.8
20190424154812 61 277 6.0 11.0 0.00 0.00 0.00 50 1006.7
20190424154338 61 321 4.0 15.0 0.00 0.00 0.00 49 1006.7
20190424153904 61 322 6.0 15.0 0.00 0.00 0.00 50 1006.7
20190424153356 61 330 5.0 15.0 0.00 0.00 0.00 49 1006.5
20190424152841 61 295 5.0 14.0 0.00 0.00 0.00 51 1006.5
20190424152334 61 320 6.0 14.0 0.00 0.00 0.00 50 1006.5
20190424151901 61 348 4.0 12.0 0.00 0.00 0.00 51 1006.4
20190424151354 61 242 3.0 12.0 0.00 0.00 0.00 52 1006.4
20190424150839 61 314 6.0 14.0 0.00 0.00 0.00 51 1006.5
20190424150315 61 320 6.0 14.0 0.00 0.00 0.00 51 1006.4
20190424145842 60 226 3.0 11.0 0.00 0.00 0.00 52 1006.4
20190424145335 60 297 3.0 13.0 0.00 0.00 0.00 54 1006.4
20190424144821 60 314 6.0 13.0 0.00 0.00 0.00 53 1006.4
20190424144314 60 239 4.0 11.0 0.00 0.00 0.00 53 1006.4
20190424143400 59 304 5.0 13.0 0.00 0.00 0.00 54 1006.3
20190424142853 59 272 5.0 9.0 0.00 0.00 0.00 53 1006.3
20190424142339 59 333 3.0 10.0 0.00 0.00 0.00 54 1006.1
20190424141815 59 320 4.0 10.0 0.00 0.00 0.00 55 1006.2
20190424141342 59 360 5.0 10.0 0.00 0.00 0.00 54 1006.2
20190424140829 59 283 3.0 12.0 0.00 0.00 0.00 55 1006.2
20190424140321 59 350 3.0 10.0 0.00 0.00 0.00 56 1006.1
20190424135814 58 239 2.0 9.0 0.00 0.00 0.00 56 1006.1
20190424135400 58 249 4.0 10.0 0.00 0.00 0.00 57 1006.1
20190424134853 58 356 1.0 12.0 0.00 0.00 0.00 55 1006.0
20190424134347 58 290 3.0 10.0 0.00 0.00 0.00 56 1006.0
20190424133815 58 237 2.0 12.0 0.00 0.00 0.00 56 1006.0
20190424133342 58 218 6.0 12.0 0.00 0.00 0.00 55 1006.0
20190424132834 58 308 1.0 7.0 0.00 0.00 0.00 56 1005.8
20190424132320 58 7 3.0 7.0 0.00 0.00 0.00 57 1005.8
20190424131813 58 285 3.0 9.0 0.00 0.00 0.00 58 1005.6
20190424130900 58 322 4.0 12.0 0.00 0.00 0.00 58 1005.6
20190424130352 58 295 6.0 12.0 0.00 0.00 0.00 59 1005.5
20190424125838 58 295 5.0 12.0 0.00 0.00 0.00 59 1005.6
20190424125315 58 285 5.0 12.0 0.00 0.00 0.00 60 1005.6
20190424124842 58 250 4.0 11.0 0.00 0.00 0.00 59 1005.7
20190424124336 58 333 5.0 11.0 0.00 0.00 0.00 61 1005.6
20190424123901 58 319 3.0 8.0 0.00 0.00 0.00 61 1005.6
20190424123347 58 271 2.0 7.0 0.00 0.00 0.00 63 1005.5
20190424122838 58 255 5.0 7.0 0.00 0.00 0.00 63 1005.5
20190424122405 58 277 4.0 15.0 0.00 0.00 0.00 64 1005.4
20190424121857 58 347 3.0 15.0 0.00 0.00 0.00 64 1005.5
20190424121344 58 321 6.0 12.0 0.00 0.00 0.00 64 1005.6
20190424120820 58 272 3.0 10.0 0.00 0.00 0.00 64 1005.5
20190424120346 58 335 3.0 11.0 0.00 0.00 0.00 64 1005.5
20190424115839 58 270 8.0 12.0 0.00 0.00 0.00 65 1005.5
20190424115406 58 337 7.0 12.0 0.00 0.00 0.00 65 1005.4
20190424114859 58 283 4.0 14.0 0.00 0.00 0.00 66 1005.3
20190424114344 58 166 5.0 13.0 0.00 0.00 0.00 67 1005.2
20190424113837 58 330 5.0 13.0 0.00 0.00 0.00 69 1005.2
20190424113404 58 301 5.0 11.0 0.00 0.00 0.00 70 1005.2
20190424112856 58 281 5.0 10.0 0.00 0.00 0.00 71 1005.1
20190424112327 59 325 4.0 11.0 0.00 0.00 0.00 72 1005.0
20190424111854 59 255 3.0 7.0 0.00 0.00 0.00 73 1005.0
20190424111346 59 333 2.0 10.0 0.00 0.00 0.00 74 1005.0
20190424110833 59 334 4.0 7.0 0.00 0.00 0.00 74 1004.9
20190424110325 59 322 4.0 8.0 0.00 0.00 0.00 75 1004.9
20190424105818 59 314 4.0 8.0 0.00 0.00 0.00 75 1004.7
20190424105404 58 250 4.0 8.0 0.00 0.00 0.00 76 1004.6
20190424104857 58 320 4.0 8.0 0.00 0.00 0.00 77 1004.6
20190424104327 58 346 3.0 9.0 0.00 0.00 0.00 79 1004.4
20190424103900 58 311 2.0 9.0 0.00 0.00 0.00 81 1004.4
20190424103345 58 323 3.0 6.0 0.00 0.00 0.00 83 1004.3
20190424102838 58 312 2.0 5.0 0.00 0.00 0.00 83 1004.2
20190424102405 58 313 2.0 5.0 0.00 0.00 0.00 83 1004.2
20190424101858 58 297 1.0 7.0 0.00 0.00 0.00 83 1004.0
20190424101344 58 338 3.0 7.0 0.00 0.00 0.00 83 1004.0
20190424100835 58 332 2.0 4.0 0.00 0.00 0.00 83 1003.9